Home > Weather > Kielce > Past weeks

Flag for Poland Past Weather in Kielce, Poland — Yesterday and Last 2 Weeks

Now
69 °F

Overcast.


Feels Like: 69 °F
Forecast: 65 / 84 °F
Wind: 1 mph from Northwest

Location: Kielce

Current Time: Jul 26, 2016 at 2:40:32 AM

Latest Report: Jul 26, 2016 at 2:00 AM


Visibility: 11 mi

Pressure: 30.01 "Hg

Humidity: 79%

Dew Point: 63 °F

Location of KielceLocation

Past Weather in Kielce — Graph

°F

Kielce Temperature Yesterday

Maximum temperature yesterday: 84 °F (at 2:00 PM)
Minimum temperature yesterday: 64 °F (at 4:00 AM)
Average temperature yesterday: 75 °F

High & Low Weather Summary for the Past Weeks

 TemperatureHumidityPressure
High91 °F (Jul 11, 3:00 PM)100% (Jul 20, 4:00 AM)30.20 "Hg (Jul 20, 4:00 AM)
Low46 °F (Jul 21, 5:00 AM)27% (Jul 22, 4:00 PM)29.58 "Hg (Jul 14, 2:00 PM)
Average66 °F74%29.99 "Hg
* Reported Jul 11 1:00 AM — Jul 26 1:00 AM, Kielce, Weather by CustomWeather, © 2016

Note: Actual official high and low records may vary slightly from our data, if they occured in-between our weather recording intervals... More about our weather records

Advertising

Kielce Weather History for the Previous 24 Hours

Scroll right to see more
 ConditionsComfort  
Time TempWeatherWind HumidityBarometerVisibility
1:00 AM
Tue, Jul 26
70 °FOvercast.1 mph79%30.01 "Hg11 mi
12:00 AM70 °FOvercast.1 mph80%30.01 "Hg10 mi
11:00 PM
Mon, Jul 25
70 °FOvercast.1 mph81%30.02 "Hg10 mi
10:00 PM71 °FOvercast.2 mph80%30.02 "Hg9 mi
9:00 PM72 °FOvercast.2 mph76%30.01 "Hg12 mi
8:00 PM74 °FOvercast.2 mph70%30.00 "Hg12 mi
7:00 PM77 °FOvercast.3 mph62%29.99 "Hg16 mi
6:00 PM82 °FOvercast.2 mph43%29.97 "Hg19 mi
5:00 PM83 °FOvercast.3 mph40%29.97 "Hg19 mi
4:00 PM83 °FOvercast.2 mph41%29.97 "Hg22 mi
3:00 PM83 °FOvercast.2 mph38%29.98 "Hg25 mi
2:00 PM84 °FOvercast.3 mph39%29.98 "Hg19 mi
1:00 PM83 °FOvercast.3 mph41%29.99 "Hg25 mi
12:00 PM83 °FOvercast.3 mph41%30.00 "Hg17 mi
11:00 AM84 °FPartly sunny.2 mph43%30.01 "Hg19 mi
10:00 AM82 °FPassing clouds.3 mph46%30.01 "Hg17 mi
9:00 AM79 °FPassing clouds.3 mph52%30.03 "Hg19 mi
8:00 AM76 °FPassing clouds.3 mph54%30.03 "Hg18 mi
7:00 AM70 °FPartly sunny.2 mph69%30.05 "Hg19 mi
6:00 AM67 °FOvercast.2 mph78%30.06 "Hg14 mi
5:00 AM64 °FOvercast.2 mph82%30.06 "Hg13 mi
4:00 AM64 °FOvercast.1 mph80%30.06 "Hg13 mi
3:00 AM66 °FPassing clouds.1 mph77%30.06 "Hg15 mi
2:00 AM67 °FPassing clouds.1 mph74%30.07 "Hg14 mi
Weather by CustomWeather, © 2016

See weather overviewHow to use our weather pages